Home   Weather   Durrës   Past weeks

Flag for Albania Past Weather in Durrës, Albania — Yesterday and Last 2 Weeks

Now
68 °F

Sunny.


Feels Like: 68 °F
Forecast: 60 / 74 °F
Wind: 7 mph from North

Location: Tirana Airport

Current Time: Sep 29, 2016 at 7:14:38 PM

Latest Report: Sep 29, 2016 at 6:20 PM


Visibility: 10 mi

Pressure: 30.21 "Hg

Humidity: 60%

Dew Point: 54 °F

Location of DurrësLocation

Past Weather in Durrës — Graph

°F

Durrës Temperature Yesterday

Maximum temperature yesterday: 82 °F (at 12:50 PM)
Minimum temperature yesterday: 50 °F (at 6:50 AM)
Average temperature yesterday: 65 °F

High & Low Weather Summary for the Past Weeks

 TemperatureHumidityPressure
High90 °F (Sep 16, 1:50 PM)100% (Sep 17, 9:20 PM)30.33 "Hg (Sep 17, 9:20 PM)
Low46 °F (Sep 23, 5:50 AM)24% (Sep 23, 1:20 PM)29.71 "Hg (Sep 19, 1:20 PM)
Average67 °F69%30.04 "Hg
* Reported Sep 14 5:20 PM — Sep 29 5:50 PM, Durrës, Weather by CustomWeather, © 2016

Note: Actual official high and low records may vary slightly from our data, if they occured in-between our weather recording intervals... More about our weather records

Advertising

Durrës Weather History for the Previous 24 Hours

Scroll right to see more
 ConditionsComfort  
Time TempWeatherWind HumidityBarometerVisibility
5:50 PM
Thu, Sep 29
72 °FSunny.6 mph50%30.21 "Hg10 mi
5:20 PM73 °FSunny.8 mph44%30.21 "Hg10 mi
4:50 PM73 °FSunny.9 mph41%30.24 "Hg10 mi
4:20 PM75 °FPassing clouds.12 mph36%30.24 "HgN/A
3:50 PM77 °FSunny.13 mph32%30.24 "Hg10 mi
3:20 PM73 °FSunny.10 mph31%30.24 "Hg10 mi
2:50 PM75 °FPassing clouds.10 mph31%30.24 "HgN/A
2:20 PM79 °FPassing clouds.8 mph32%30.27 "HgN/A
1:50 PM81 °FPassing clouds.8 mph32%30.27 "HgN/A
1:20 PM81 °FPassing clouds.5 mph37%30.27 "HgN/A
12:50 PM81 °FPassing clouds.6 mph37%30.30 "HgN/A
12:20 PM81 °FPassing clouds.6 mph39%30.30 "HgN/A
11:50 AM79 °FSunny.2 mph45%30.33 "Hg10 mi
11:20 AM77 °FSunny.2 mph44%30.33 "Hg10 mi
10:50 AM72 °FSunny.2 mph50%30.33 "Hg10 mi
10:20 AM70 °FSunny.2 mph50%30.33 "Hg10 mi
9:50 AM68 °FSunny.No wind60%30.33 "Hg10 mi
9:20 AM66 °FSunny.No wind60%30.33 "Hg10 mi
8:50 AM63 °FSunny.No wind64%30.33 "Hg10 mi
8:20 AM59 °FSunny.No wind72%30.33 "Hg10 mi
7:50 AM55 °FSunny.2 mph82%30.33 "Hg10 mi
7:20 AM54 °FSunny.2 mph88%30.30 "Hg10 mi
6:50 AM50 °FSunny.3 mph94%30.30 "Hg10 mi
6:20 AM50 °FClear.2 mph94%30.30 "Hg10 mi
5:50 AM52 °FClear.2 mph94%30.30 "Hg10 mi
5:20 AM52 °FClear.1 mph94%30.30 "Hg10 mi
4:50 AM54 °FClear.2 mph88%30.30 "Hg10 mi
4:20 AM54 °FClear.3 mph88%30.30 "Hg10 mi
3:50 AM52 °FClear.3 mph94%30.33 "Hg10 mi
3:20 AM54 °FClear.2 mph94%30.33 "Hg10 mi
2:50 AM55 °FClear.2 mph88%30.33 "Hg10 mi
2:20 AM55 °FClear.2 mph88%30.33 "Hg10 mi
1:50 AM55 °FClear.3 mph88%30.33 "Hg10 mi
1:20 AM55 °FClear.3 mph88%30.33 "Hg10 mi
12:50 AM57 °FClear.2 mph82%30.33 "Hg10 mi
12:20 AM55 °FClear.3 mph88%30.33 "Hg10 mi
11:50 PM
Wed, Sep 28
57 °FClear.2 mph82%30.33 "Hg10 mi
11:20 PM57 °FClear.2 mph88%30.33 "Hg10 mi
10:50 PM57 °FClear.3 mph82%30.33 "Hg10 mi
10:20 PM59 °FClear.3 mph82%30.33 "Hg10 mi
9:50 PM59 °FClear.3 mph82%30.33 "Hg10 mi
9:20 PM59 °FClear.1 mph82%30.33 "Hg10 mi
8:50 PM61 °FClear.1 mph77%30.33 "Hg10 mi
8:20 PM61 °FClear.2 mph77%30.33 "Hg10 mi
7:50 PM64 °FClear.3 mph64%30.30 "Hg10 mi
7:20 PM66 °FClear.3 mph60%30.30 "Hg10 mi
Weather by CustomWeather, © 2016

See weather overviewHow to use our weather pages